Date,TemperatureHighF,TemperatureAvgF,TemperatureLowF,DewpointHighF,DewpointAvgF,DewpointLowF,HumidityHigh,HumidityAvg,HumidityLow,PressureMaxIn,PressureMinIn,WindSpeedMaxMPH,WindSpeedAvgMPH,GustSpeedMaxMPH,PrecipitationSumIn
2014-1-1,65,47,33,50,37,27,91,71,46,30.77,30.43,24,9,30,0.00
2014-1-2,40,32,24,26,19,16,78,61,41,31.03,30.73,21,9,32,0.00
2014-1-3,49,36,24,27,23,18,82,60,38,31.02,30.60,18,7,22,0.00
2014-1-4,66,50,35,52,42,26,97,76,55,30.60,30.30,24,9,32,0.00
2014-1-5,59,33,20,54,22,6,86,65,47,31.10,30.30,28,14,32,0.00
2014-1-6,30,21,13,11,5,1,62,50,33,31.31,31.09,20,6,24,0.00
2014-1-7,45,31,18,18,13,9,76,49,27,31.14,30.84,19,4,21,0.00
2014-1-8,46,41,37,46,37,18,100,87,44,30.84,30.67,19,7,21,0.04
2014-1-9,46,41,37,46,41,37,100,100,100,30.77,30.55,11,5,14,0.11
2014-1-10,65,58,46,64,57,44,100,95,66,30.54,30.21,21,6,21,0.11
2014-1-11,65,52,42,43,34,28,96,57,25,30.66,30.37,13,4,18,0.00
2014-1-12,69,56,42,56,38,31,82,55,27,30.61,30.35,28,10,36,0.00
2014-1-13,62,56,40,59,35,22,90,50,25,30.63,30.34,23,9,32,0.00
2014-1-14,64,49,36,36,27,21,63,45,21,30.89,30.56,24,6,27,0.00
2014-1-15,54,43,36,27,23,19,61,46,31,30.95,30.65,14,4,14,0.00
2014-1-16,64,49,36,35,28,18,74,47,20,30.74,30.57,14,4,17,0.00
2014-1-17,52,46,38,21,16,11,48,31,21,30.93,30.73,16,5,23,0.00
2014-1-18,66,50,36,32,26,17,58,39,25,30.76,30.57,19,5,26,0.00
2014-1-19,62,49,35,30,27,24,72,44,25,30.87,30.61,10,3,12,0.00
2014-1-20,71,55,42,41,34,25,69,46,30,30.76,30.40,21,5,21,0.00
2014-1-21,53,42,32,26,17,7,54,37,24,30.99,30.73,26,5,27,0.00
2014-1-22,57,43,30,30,23,16,61,47,31,30.73,30.59,15,4,16,0.00
2014-1-23,43,32,22,24,11,-1,56,42,33,31.32,30.72,27,10,27,0.00
2014-1-24,39,27,17,16,6,0,55,41,24,31.31,30.79,13,2,20,0.00
2014-1-25,65,44,27,32,25,16,72,49,29,30.80,30.53,10,1,13,0.00
2014-1-26,71,55,45,39,36,31,67,51,28,30.54,30.20,13,1,17,0.00
2014-1-27,48,35,24,37,10,-2,74,36,23,30.89,30.32,23,6,34,0.00
2014-1-28,34,26,21,15,6,0,65,43,34,31.06,30.89,11,0,17,0.00
2014-1-29,45,30,16,16,12,7,86,51,22,31.03,30.74,16,0,19,0.00
2014-1-30,56,42,29,47,30,15,90,63,53,30.75,30.39,27,4,35,0.00
2014-1-31,74,62,50,60,53,47,93,75,47,30.45,30.31,22,4,25,0.00
2014-2-1,65,52,39,60,46,31,94,80,70,30.57,30.30,29,1,30,0.00
2014-2-2,38,32,29,32,30,27,99,92,75,30.81,30.56,19,8,26,0.11
2014-2-3,40,33,28,36,31,25,96,90,83,30.85,30.57,10,1,14,0.01
2014-2-4,45,40,37,42,38,34,100,94,80,30.67,30.43,24,1,25,0.19
2014-2-5,38,28,22,34,20,14,87,72,63,31.08,30.66,23,10,34,0.00
2014-2-6,24,20,15,20,15,8,92,80,70,31.15,30.97,17,3,19,0.00
2014-2-7,32,27,22,31,23,17,98,85,76,30.97,30.78,1,0,9,0.01
2014-2-8,47,38,31,42,36,30,100,95,79,30.78,30.57,16,1,19,0.02
2014-2-9,47,41,37,44,41,37,100,98,88,30.69,30.58,14,0,14,0.00
2014-2-10,37,32,30,37,32,29,100,100,98,30.84,30.67,14,2,17,0.01
2014-2-11,35,31,27,30,27,24,99,85,73,30.89,30.77,14,1,21,0.01
2014-2-12,49,38,30,32,27,22,86,67,44,30.78,30.59,9,0,15,0.00
2014-2-13,62,45,29,40,35,27,94,71,41,30.61,30.42,12,1,19,0.00
2014-2-14,70,54,43,44,35,23,90,55,18,30.65,30.28,26,3,29,0.00
2014-2-15,66,50,35,35,30,26,75,49,26,30.71,30.55,13,1,21,0.00
2014-2-16,72,60,46,59,50,34,92,71,53,30.62,30.44,17,2,21,0.00
2014-2-17,72,64,51,62,42,24,93,51,17,30.70,30.42,19,2,20,0.00
2014-2-18,78,62,47,61,46,29,87,56,37,30.68,30.40,21,2,23,0.00
2014-2-19,71,65,62,63,61,60,99,87,73,30.48,30.20,21,1,23,0.00
2014-2-20,72,63,42,63,47,30,85,60,29,30.67,30.18,23,4,29,0.00
2014-2-21,64,50,34,35,28,15,86,46,20,30.74,30.55,14,0,16,0.00
2014-2-22,73,59,45,52,41,31,75,52,35,30.58,30.37,16,1,25,0.00
2014-2-23,72,58,46,61,50,39,99,75,46,30.68,30.41,15,1,20,0.00
2014-2-24,57,49,42,46,41,38,88,75,64,30.74,30.59,0,0,1,0.00
2014-2-25,52,48,40,45,40,29,90,76,51,30.71,30.58,19,0,21,0.09
2014-2-26,41,36,29,35,20,14,80,54,39,30.88,30.70,27,3,28,0.09
2014-2-27,53,39,24,32,24,18,84,56,34,30.73,30.41,3,0,8,0.09
2014-2-28,74,55,42,53,43,31,91,66,38,30.43,30.23,18,3,27,0.00
2014-3-1,79,65,52,64,59,52,100,82,51,30.54,30.39,12,1,23,0.00
2014-3-2,70,32,19,64,29,14,100,90,70,30.88,30.47,25,9,32,0.03
2014-3-3,32,23,15,19,15,10,83,72,59,31.02,30.86,19,5,29,0.00
2014-3-4,46,33,24,32,26,18,92,76,54,30.89,30.59,9,0,9,0.01
2014-3-5,53,41,30,34,32,29,98,71,46,30.73,30.53,13,0,14,0.00
2014-3-6,53,44,39,39,37,32,91,76,56,30.80,30.60,12,1,18,0.00
2014-3-7,64,49,35,43,39,34,99,71,41,30.61,30.40,17,3,26,0.00
2014-3-8,55,48,38,52,44,35,95,86,72,30.86,30.43,25,1,25,0.00
2014-3-9,60,47,37,44,39,35,92,77,53,30.90,30.74,10,0,11,0.00
2014-3-10,74,57,40,55,45,40,100,70,31,30.74,30.42,11,0,21,0.00
2014-3-11,76,64,54,58,55,38,98,75,41,30.42,30.08,23,3,24,0.00
2014-3-12,61,53,45,38,29,20,64,42,22,30.84,30.34,18,1,34,0.00
2014-3-13,66,52,34,36,29,24,86,45,24,30.89,30.62,10,0,16,0.00
2014-3-14,70,58,45,53,46,33,87,67,49,30.64,30.50,15,2,24,0.00
2014-3-15,67,60,54,63,58,52,99,91,76,30.54,30.23,10,0,17,0.57
2014-3-16,56,47,41,54,42,33,100,83,72,30.62,30.29,32,1,37,0.00
2014-3-17,60,47,37,35,29,22,76,53,26,30.60,30.29,0,0,15,0.00
2014-3-18,78,62,47,51,42,30,72,51,23,30.42,30.14,27,4,31,0.00
2014-3-19,67,55,45,38,34,29,69,46,24,30.77,30.42,14,0,19,0.00
2014-3-20,70,56,38,41,34,29,85,47,23,30.79,30.56,0,0,10,0.00
2014-3-21,78,64,52,59,48,30,78,58,38,30.57,30.36,23,2,27,0.00
2014-3-22,66,60,51,59,52,44,96,76,55,30.65,30.46,13,0,14,0.00
2014-3-23,58,51,46,51,36,29,90,57,41,30.91,30.65,24,1,24,0.00
2014-3-24,64,51,39,37,33,28,80,51,33,30.81,30.58,0,0,6,0.00
2014-3-25,61,51,40,38,30,24,76,47,27,30.96,30.71,13,0,13,0.00
2014-3-26,60,52,42,50,38,30,75,59,48,30.79,30.48,23,2,24,0.00
2014-3-27,77,65,56,66,60,50,100,86,68,30.48,30.21,19,4,24,0.04
2014-3-28,79,67,53,68,62,44,100,84,60,30.61,30.28,17,0,22,0.19
2014-3-29,72,58,46,45,39,28,83,54,20,30.85,30.61,11,0,18,0.00
2014-3-30,75,63,49,47,39,33,57,43,29,30.78,30.53,18,2,23,0.00
2014-3-31,78,66,55,59,54,46,85,67,51,30.54,30.39,21,3,25,0.00
2014-4-1,81,70,62,66,62,58,93,76,53,30.55,30.39,11,1,19,0.00
2014-4-2,81,73,68,71,68,66,96,85,62,30.43,30.25,21,1,21,0.00
2014-4-3,82,74,66,70,67,56,91,79,60,30.37,30.16,28,2,30,0.00
2014-4-4,67,56,46,56,36,32,68,50,31,30.75,30.38,26,0,30,0.00
2014-4-5,55,51,48,46,39,33,82,64,47,30.71,30.49,4,0,16,0.04
2014-4-6,51,48,46,50,47,43,100,94,79,30.53,30.31,14,0,18,0.92
2014-4-7,64,54,49,51,49,46,100,84,56,30.55,30.34,2,0,28,0.04
2014-4-8,69,59,51,49,40,30,83,53,24,30.72,30.53,34,5,34,0.00
2014-4-9,77,61,43,48,42,38,83,53,32,30.80,30.57,19,1,21,0.00
2014-4-10,82,70,57,56,53,47,83,58,35,30.58,30.41,24,1,28,0.00
2014-4-11,80,70,62,64,59,51,86,70,53,30.59,30.45,1,0,2,0.00
2014-4-12,81,72,65,63,61,60,84,69,51,30.51,30.31,10,0,10,0.00
2014-4-13,74,69,65,70,65,59,98,87,66,30.36,30.14,13,0,13,0.39
2014-4-14,72,50,44,69,40,31,92,71,51,30.80,30.23,0,0,4,0.01
2014-4-15,62,49,36,34,27,20,73,45,22,30.88,30.68,0,0,0,0.00
2014-4-16,65,53,41,44,37,32,74,55,37,30.70,30.51,7,0,9,0.00
2014-4-17,65,58,48,54,49,40,91,73,60,30.76,30.59,0,0,0,0.00
2014-4-18,75,64,55,54,49,43,91,62,34,30.80,30.66,0,0,0,0.00
2014-4-19,77,66,55,58,53,47,88,64,41,30.77,30.63,0,0,0,0.00
2014-4-20,77,68,61,61,57,52,96,70,45,30.70,30.59,17,2,21,0.22
2014-4-21,77,68,61,70,64,60,98,87,69,30.66,30.44,14,3,17,0.10
2014-4-22,83,70,58,64,59,53,100,72,37,30.62,30.47,14,0,14,0.00
2014-4-23,84,72,59,65,60,54,87,68,48,30.51,30.29,2,0,9,0.00
2014-4-24,81,73,66,66,58,46,92,64,32,30.51,30.31,1,0,12,0.00
2014-4-25,80,69,56,48,42,31,61,40,21,30.62,30.44,4,0,7,0.00
2014-4-26,81,71,60,70,60,42,90,71,45,30.45,30.19,1,0,10,0.00
2014-4-27,86,76,71,73,69,58,95,79,55,30.20,29.95,18,2,30,0.06
2014-4-28,81,73,66,58,42,32,54,33,19,30.25,30.04,0,0,0,0.00
2014-4-29,73,66,58,48,39,33,59,40,25,30.51,30.19,10,0,21,0.00
2014-4-30,66,57,49,43,37,30,67,48,28,30.71,30.51,12,0,19,0.00
2014-5-1,72,59,43,45,36,28,92,49,22,30.73,30.57,23,3,23,0.00
2014-5-2,79,64,49,44,38,26,73,43,16,30.61,30.46,18,1,19,0.00
2014-5-3,87,69,48,50,42,30,78,42,16,30.60,30.51,4,0,8,0.00
2014-5-4,89,75,60,51,46,43,58,39,21,30.60,30.47,18,3,24,0.00
2014-5-5,86,73,59,61,54,41,78,52,38,30.51,30.32,19,5,27,0.00
2014-5-6,84,74,63,65,61,57,93,66,49,30.38,30.25,22,6,27,0.00
2014-5-7,81,74,68,68,65,61,86,73,59,30.41,30.30,18,6,27,0.00
2014-5-8,73,69,64,72,67,63,100,95,78,30.46,30.30,17,1,39,4.36
2014-5-9,84,74,64,74,68,62,100,83,56,30.47,30.34,16,1,16,0.01
2014-5-10,82,74,64,71,66,61,94,77,56,30.47,30.33,16,3,22,0.00
2014-5-11,85,78,71,72,70,67,96,78,60,30.40,30.26,18,4,27,0.00
2014-5-12,80,72,59,75,69,57,99,90,69,30.60,30.28,19,4,26,1.17
2014-5-13,66,59,55,57,51,47,94,76,60,30.79,30.59,21,3,24,0.00
2014-5-14,69,60,54,54,48,39,98,69,34,30.83,30.72,18,2,20,0.33
2014-5-15,81,65,50,51,45,34,92,56,20,30.80,30.61,14,2,21,0.00
2014-5-16,81,68,54,57,52,45,90,60,35,30.70,30.43,17,1,19,0.00
2014-5-17,79,70,57,63,55,47,78,61,45,30.58,30.43,14,2,18,0.00
2014-5-18,81,71,61,64,60,57,94,70,48,30.66,30.53,20,3,21,0.00
2014-5-19,82,73,64,64,62,60,92,70,51,30.62,30.47,29,6,29,0.00
2014-5-20,84,76,68,67,64,62,89,68,50,30.61,30.51,19,6,25,0.00
2014-5-21,84,76,68,67,65,62,91,70,50,30.65,30.52,19,3,19,0.00
2014-5-22,84,75,67,68,66,64,96,74,53,30.69,30.54,15,1,16,0.00
2014-5-23,80,74,69,68,67,65,91,78,62,30.67,30.55,15,0,16,0.00
2014-5-24,83,76,71,69,66,64,85,74,56,30.63,30.51,10,1,14,0.00
2014-5-25,84,77,71,70,67,64,91,73,55,30.58,30.47,20,2,23,0.00
2014-5-26,77,74,66,71,68,64,92,82,69,30.62,30.49,13,0,20,0.01
2014-5-27,77,70,66,68,65,62,99,87,66,30.55,30.40,13,1,13,0.06
2014-5-28,82,73,66,68,65,61,100,77,52,30.50,30.40,12,0,13,0.00
2014-5-29,87,76,65,68,65,63,95,71,47,30.47,30.35,13,0,15,0.00
2014-5-30,85,75,68,71,68,65,99,79,54,30.46,30.37,15,1,16,0.01
2014-5-31,86,75,70,75,70,68,97,86,58,30.52,30.43,10,0,13,0.01
2014-6-1,88,78,69,74,70,67,99,78,55,30.54,30.39,10,1,16,0.00
2014-6-2,88,80,73,72,70,65,94,74,50,30.59,30.42,13,2,19,0.00
2014-6-3,88,80,72,74,71,68,96,76,54,30.60,30.44,15,1,15,0.00
2014-6-4,88,80,74,73,71,69,95,74,55,30.46,30.34,15,4,20,0.00
2014-6-5,87,80,73,73,72,70,94,77,61,30.44,30.33,19,3,21,0.00
2014-6-6,89,80,72,73,71,68,95,75,52,30.54,30.37,16,1,16,0.00
2014-6-7,92,83,74,72,70,67,89,68,47,30.51,30.40,15,3,20,0.00
2014-6-8,86,80,73,75,71,68,92,75,59,30.55,30.34,16,3,23,0.04
2014-6-9,77,71,63,75,67,62,98,88,71,30.42,30.29,17,2,30,0.88
2014-6-10,83,75,67,66,61,58,87,63,47,30.42,30.30,17,5,23,0.00
2014-6-11,90,78,63,68,65,60,95,68,44,30.47,30.32,13,1,15,0.00
2014-6-12,84,77,71,72,70,67,96,79,59,30.56,30.29,16,1,23,0.05
2014-6-13,88,79,72,72,69,67,94,73,54,30.57,30.45,13,0,13,0.05
2014-6-14,88,80,72,75,71,68,93,75,58,30.50,30.36,20,3,21,0.00
2014-6-15,90,83,75,73,71,68,89,70,49,30.51,30.37,18,5,27,0.00
2014-6-16,91,83,75,74,72,69,94,73,52,30.60,30.47,22,4,23,0.00
2014-6-17,91,82,76,75,73,67,91,74,53,30.58,30.46,23,4,26,0.00
2014-6-18,91,80,74,75,72,67,92,78,53,30.57,30.47,27,4,29,0.00
2014-6-19,90,82,73,74,72,68,95,72,49,30.63,30.52,15,2,17,0.00
2014-6-20,90,82,74,73,70,65,92,69,47,30.66,30.55,12,1,14,0.00
2014-6-21,86,80,74,74,71,68,93,75,59,30.62,30.47,11,0,11,0.00
2014-6-22,78,75,71,73,71,68,97,90,81,30.55,30.40,14,0,16,0.13
2014-6-23,86,76,68,73,70,66,98,83,55,30.53,30.37,17,1,33,0.17
2014-6-24,92,78,70,74,70,66,97,79,50,30.62,30.50,21,0,21,0.08
2014-6-25,80,74,70,75,71,68,98,93,79,30.63,30.52,19,0,19,0.01
2014-6-26,88,77,70,74,72,69,100,84,58,30.60,30.43,18,2,19,0.00
2014-6-27,89,79,72,75,72,70,96,81,58,30.49,30.36,19,4,24,0.00
2014-6-28,89,82,76,77,74,71,90,78,57,30.49,30.40,16,4,26,0.00
2014-6-29,91,84,79,77,74,70,90,71,54,30.60,30.48,24,5,24,0.00
2014-6-30,92,84,76,74,71,67,89,68,44,30.56,30.41,18,6,26,0.00
2014-7-1,92,82,73,73,71,69,92,71,50,30.57,30.40,19,3,19,0.00
2014-7-2,94,83,76,74,70,64,90,67,39,30.66,30.51,14,1,14,0.00
2014-7-3,84,77,68,70,67,64,94,73,54,30.76,30.63,27,1,27,0.69
2014-7-4,88,80,72,76,71,67,92,75,58,30.79,30.69,8,0,13,0.03
2014-7-5,90,80,72,72,69,66,92,73,50,30.77,30.62,15,0,16,0.00
2014-7-6,91,81,71,74,70,67,97,73,47,30.64,30.51,11,1,15,0.00
2014-7-7,94,83,73,73,70,65,96,68,41,30.57,30.47,11,2,19,0.00
2014-7-8,95,84,75,75,70,65,87,65,39,30.59,30.47,13,2,15,0.00
2014-7-9,95,84,74,70,68,63,81,60,38,30.64,30.49,8,1,14,0.00
2014-7-10,94,84,75,72,67,62,81,58,37,30.63,30.51,14,2,18,0.00
2014-7-11,93,83,71,71,66,61,84,59,37,30.71,30.60,12,2,18,0.00
2014-7-12,96,85,74,71,67,59,85,58,34,30.74,30.61,16,1,16,0.00
2014-7-13,98,87,75,73,68,62,85,58,31,30.67,30.52,9,1,16,0.00
2014-7-14,98,83,76,74,70,66,85,68,36,30.58,30.47,16,2,18,0.16
2014-7-15,91,81,74,73,62,46,94,57,22,30.63,30.51,19,2,19,0.00
2014-7-16,89,78,66,66,62,54,77,58,43,30.61,30.44,12,1,18,0.00
2014-7-17,78,71,65,70,67,65,100,89,67,30.53,30.45,20,1,21,3.35
2014-7-18,72,67,63,67,64,62,100,91,76,30.60,30.50,11,0,12,3.35
2014-7-19,76,70,66,68,66,63,98,85,68,30.63,30.56,0,0,3,0.01
2014-7-20,88,76,65,73,69,65,100,80,59,30.63,30.50,8,0,11,0.01
2014-7-21,94,81,70,78,72,68,96,78,46,30.64,30.53,9,0,12,0.00
2014-7-22,93,83,74,76,72,67,95,73,44,30.66,30.58,10,0,11,0.00
2014-7-23,94,81,71,73,70,66,93,71,46,30.69,30.56,20,1,37,0.00
2014-7-24,91,80,69,72,69,64,97,71,43,30.65,30.52,9,0,11,0.00
2014-7-25,96,83,71,75,71,66,98,70,40,30.60,30.47,14,1,14,0.00
2014-7-26,96,86,74,75,71,66,92,65,38,30.59,30.47,13,2,16,0.00
2014-7-27,99,87,76,74,71,66,88,61,35,30.62,30.53,11,1,14,0.00
2014-7-28,93,84,77,76,70,60,85,63,40,30.70,30.58,14,1,19,0.00
2014-7-29,86,79,70,70,64,61,81,61,45,30.72,30.62,6,0,11,0.00
2014-7-30,86,78,72,73,70,67,94,76,60,30.67,30.48,16,1,17,0.20
2014-7-31,82,74,68,77,71,67,100,92,69,30.60,30.49,19,2,25,2.47
2014-8-1,76,71,68,70,68,67,100,90,74,30.64,30.56,1,0,10,0.00
2014-8-2,85,76,66,70,68,66,99,79,56,30.68,30.58,6,0,10,0.00
2014-8-3,88,80,71,72,69,66,93,71,49,30.68,30.56,17,1,17,0.00
2014-8-4,90,81,73,73,69,64,92,70,43,30.66,30.56,6,0,13,0.00
2014-8-5,93,83,73,75,71,68,93,70,47,30.67,30.55,13,0,13,0.00
2014-8-6,95,84,75,74,72,66,93,68,41,30.62,30.46,14,1,16,0.00
2014-8-7,96,85,76,76,73,69,86,69,42,30.53,30.36,15,1,15,0.00
2014-8-8,99,87,78,75,72,66,85,62,39,30.52,30.40,18,2,18,0.00
2014-8-9,98,86,77,74,72,65,88,64,36,30.57,30.45,11,1,17,0.00
2014-8-10,100,86,76,75,71,64,91,63,33,30.61,30.48,8,1,11,0.00
2014-8-11,94,85,78,73,69,63,79,60,37,30.63,30.54,11,1,15,0.00
2014-8-12,90,82,72,71,63,54,82,56,31,30.66,30.56,22,2,22,0.00
2014-8-13,91,79,68,63,60,57,74,53,34,30.69,30.56,8,0,10,0.00
2014-8-14,91,79,68,66,63,60,83,60,38,30.66,30.53,11,0,13,0.00
2014-8-15,95,82,70,73,67,64,82,62,41,30.60,30.42,10,1,13,0.00
2014-8-16,99,82,77,75,72,66,91,73,36,30.52,30.43,18,2,23,0.11
2014-8-17,81,76,73,76,73,70,97,89,79,30.60,30.46,10,0,13,0.69
2014-8-18,90,81,73,77,74,72,97,81,59,30.54,30.42,16,1,17,0.00
2014-8-19,93,84,76,76,70,63,89,66,38,30.52,30.40,20,2,23,0.00
2014-8-20,95,84,77,75,71,67,89,67,42,30.56,30.46,14,2,19,0.00
2014-8-21,97,86,77,77,71,62,93,64,32,30.62,30.51,16,2,21,0.00
2014-8-22,98,87,77,75,69,57,89,59,27,30.63,30.50,19,1,19,0.00
2014-8-23,97,86,75,73,68,59,89,58,31,30.59,30.45,11,1,14,0.00
2014-8-24,98,86,75,72,68,62,85,58,33,30.54,30.42,8,0,14,0.00
2014-8-25,98,87,75,72,69,64,84,57,35,30.57,30.45,8,0,19,0.00
2014-8-26,95,86,76,74,70,66,86,61,39,30.62,30.51,13,0,14,0.00
2014-8-27,92,83,74,73,68,62,89,63,39,30.65,30.52,10,1,14,0.00
2014-8-28,95,83,73,72,67,63,81,60,37,30.57,30.39,10,0,17,0.00
2014-8-29,91,80,73,75,71,65,93,77,52,30.51,30.40,13,0,14,0.01
2014-8-30,91,81,72,75,71,68,97,75,50,30.55,30.43,11,0,11,0.00
2014-8-31,92,83,74,75,72,68,94,72,47,30.56,30.44,14,2,19,0.00
2014-9-1,93,84,76,75,71,68,90,68,47,30.51,30.41,14,4,23,0.00
2014-9-2,95,86,77,75,72,67,90,66,43,30.59,30.44,14,1,16,0.00
2014-9-3,94,84,75,76,72,66,95,69,42,30.59,30.47,18,2,21,0.00
2014-9-4,95,84,75,75,70,66,91,65,41,30.63,30.52,16,2,16,0.00
2014-9-5,95,84,73,75,69,61,92,64,33,30.68,30.53,9,0,16,0.00
2014-9-6,96,82,73,74,70,66,91,71,40,30.67,30.52,13,0,18,0.05
2014-9-7,86,77,71,72,70,68,91,79,60,30.68,30.54,11,0,12,0.00
2014-9-8,92,81,72,74,71,68,96,74,47,30.62,30.48,10,0,10,0.00
2014-9-9,95,84,75,74,70,66,89,65,40,30.56,30.37,17,2,19,0.00
2014-9-10,97,86,77,74,70,67,82,61,39,30.41,30.31,21,3,22,0.00
2014-9-11,85,80,72,75,72,69,92,78,60,30.59,30.39,11,0,13,0.00
2014-9-12,74,68,61,73,66,56,98,92,85,30.79,30.56,15,2,19,0.01
2014-9-13,68,62,57,60,57,54,92,82,70,30.85,30.75,8,0,16,0.00
2014-9-14,81,69,61,66,62,59,98,80,60,30.82,30.68,7,0,8,0.00
2014-9-15,85,76,69,71,68,65,92,76,58,30.73,30.64,6,0,7,0.00
2014-9-16,91,81,73,73,70,66,92,72,45,30.70,30.53,0,0,8,0.00
2014-9-17,91,80,72,74,71,69,97,74,49,30.58,30.41,8,0,13,0.00
2014-9-18,86,78,72,74,71,67,95,79,60,30.52,30.40,10,0,11,0.00
2014-9-19,88,77,68,73,69,66,99,79,50,30.56,30.46,11,0,12,0.00
2014-9-20,91,80,71,73,66,58,97,68,34,30.60,30.50,8,0,14,0.00
2014-9-21,92,81,68,70,65,62,89,61,39,30.68,30.56,9,0,15,0.00
2014-9-22,86,77,67,70,57,46,81,53,26,30.78,30.66,13,1,18,0.00
2014-9-23,83,70,58,57,52,42,85,55,24,30.78,30.64,10,0,10,0.00
2014-9-24,86,72,58,56,50,42,82,52,23,30.77,30.65,9,0,13,0.00
2014-9-25,86,73,59,60,56,52,87,57,33,30.78,30.66,10,0,14,0.00
2014-9-26,87,75,63,65,58,52,89,59,31,30.72,30.59,10,0,11,0.00
2014-9-27,86,75,66,65,60,56,83,62,38,30.67,30.54,12,0,12,0.00
2014-9-28,87,76,66,67,62,58,90,65,39,30.66,30.54,8,0,14,0.00
2014-9-29,87,76,65,66,63,59,85,65,43,30.60,30.47,7,0,14,0.00
2014-9-30,90,78,67,70,66,63,88,68,43,30.48,30.31,13,0,16,0.00
2014-10-1,90,80,72,73,70,67,96,72,49,30.41,30.30,17,1,18,0.00
2014-10-2,92,78,66,75,69,56,91,75,49,30.52,30.22,52,3,58,0.47
2014-10-3,79,68,59,56,52,44,87,57,32,30.80,30.52,18,2,21,0.00
2014-10-4,76,62,45,44,38,30,82,45,22,30.81,30.53,8,0,11,0.00
2014-10-5,83,70,57,63,56,43,82,62,47,30.53,30.37,16,2,18,0.00
2014-10-6,81,72,64,68,64,60,96,77,59,30.51,30.38,14,1,21,0.58
2014-10-7,92,78,66,72,68,63,95,73,44,30.50,30.40,16,2,17,0.00
2014-10-8,86,78,72,72,70,66,95,77,54,30.61,30.48,14,1,16,0.00
2014-10-9,88,79,74,74,71,67,94,76,54,30.57,30.42,14,1,19,0.00
2014-10-10,91,80,65,72,68,62,98,68,43,30.52,30.37,31,3,31,0.41
2014-10-11,66,61,58,65,58,53,100,91,83,30.65,30.43,12,1,31,0.62
2014-10-12,73,64,54,72,59,52,98,85,68,30.60,30.20,21,1,21,0.00
2014-10-13,74,63,60,72,58,48,100,82,58,30.50,30.12,23,8,38,1.09
2014-10-14,74,63,54,49,44,38,81,53,29,30.65,30.49,26,6,28,0.00
2014-10-15,82,65,50,56,48,41,92,60,28,30.66,30.52,3,0,10,0.00
2014-10-16,86,70,55,54,50,45,86,55,25,30.53,30.37,19,2,20,0.00
2014-10-17,86,71,60,60,57,51,87,62,37,30.53,30.37,6,0,10,0.00
2014-10-18,79,69,61,60,56,52,80,64,49,30.68,30.53,9,0,16,0.00
2014-10-19,76,64,55,57,54,51,91,71,50,30.75,30.61,11,0,15,0.00
2014-10-20,81,67,54,62,57,51,92,74,49,30.67,30.56,9,0,9,0.00
2014-10-21,81,69,56,62,59,54,94,72,49,30.68,30.57,10,0,11,0.00
2014-10-22,79,69,59,64,59,54,96,72,47,30.72,30.61,6,0,12,0.00
2014-10-23,76,67,60,58,56,53,85,69,51,30.74,30.62,1,0,6,0.00
2014-10-24,81,68,57,62,58,54,93,72,51,30.75,30.62,12,0,12,0.00
2014-10-25,87,73,62,64,61,59,91,69,43,30.71,30.60,8,0,13,0.00
2014-10-26,85,73,61,63,60,55,94,67,39,30.60,30.42,20,2,20,0.00
2014-10-27,82,72,63,65,60,56,93,67,43,30.46,30.34,20,4,30,0.00
2014-10-28,76,71,66,67,63,56,92,76,63,30.68,30.39,14,0,21,0.00
2014-10-29,76,64,54,56,48,41,85,58,30,30.79,30.67,8,0,14,0.00
2014-10-30,75,63,52,59,50,44,89,66,42,30.74,30.61,11,0,11,0.00
2014-10-31,65,59,47,53,42,32,70,54,39,30.93,30.71,21,2,22,0.00
2014-11-1,60,48,37,34,30,24,80,52,29,31.02,30.85,16,0,17,0.00
2014-11-2,65,54,41,46,39,31,71,55,42,30.92,30.75,12,2,19,0.00
2014-11-3,75,64,52,62,55,43,88,72,55,30.77,30.63,18,2,24,0.00
2014-11-4,68,61,53,64,59,52,99,94,81,30.79,30.62,16,1,19,0.80
2014-11-5,58,54,51,57,54,51,100,99,99,30.81,30.71,3,0,9,0.20
2014-11-6,70,58,46,55,45,37,100,68,36,30.90,30.79,9,0,16,0.01
2014-11-7,65,53,39,43,39,34,89,59,38,30.86,30.57,6,0,14,0.01
2014-11-8,68,56,46,48,40,31,90,59,26,30.72,30.55,21,2,24,0.00
2014-11-9,70,54,36,46,40,34,94,62,35,30.71,30.40,12,1,16,0.00
2014-11-10,77,63,50,53,48,44,79,60,41,30.40,30.16,36,6,36,0.00
2014-11-20,71,64,51,59,54,48,91,70,50,30.70,30.54,18,2,22,0.00
2014-11-21,66,62,58,63,60,57,99,94,88,30.69,30.60,19,1,20,0.00
2014-11-22,66,62,59,61,59,56,100,90,78,30.67,30.22,21,2,21,0.23
2014-11-23,76,61,50,62,51,37,100,74,25,30.36,29.92,30,7,33,0.01
2014-11-24,60,49,37,39,34,23,80,57,25,30.71,30.35,21,1,26,0.00
2014-11-25,62,48,35,36,31,26,91,55,26,30.87,30.66,16,1,16,0.00
2014-11-26,64,52,40,36,33,29,72,50,33,30.95,30.58,13,1,15,0.00
2014-11-27,60,47,37,30,26,21,68,46,24,31.11,30.91,11,0,11,0.00
2014-11-28,68,54,39,51,42,27,78,64,53,30.91,30.54,19,4,28,0.00
2014-11-29,76,64,53,61,54,49,91,72,46,30.55,30.41,24,7,30,0.00
2014-11-30,78,70,64,63,60,58,88,73,52,30.66,30.46,23,6,27,0.00
2014-12-1,64,41,33,62,30,21,90,65,49,31.02,30.66,18,6,24,0.00
2014-12-2,48,39,32,42,27,20,81,62,47,31.01,30.71,9,0,10,0.00
2014-12-3,58,53,48,56,50,40,97,90,74,30.78,30.69,5,0,13,0.00
2014-12-4,66,60,56,60,57,54,97,91,79,30.76,30.60,5,0,10,0.00
2014-12-5,76,67,59,67,62,56,100,85,62,30.75,30.53,18,2,21,0.00
2014-12-6,66,56,46,56,49,44,94,78,54,30.97,30.76,16,1,18,0.00
2014-12-7,55,50,43,48,46,43,100,86,72,30.98,30.82,5,0,12,0.00
2014-12-8,59,48,40,48,44,39,99,87,64,30.93,30.83,10,0,10,0.00
2014-12-9,63,48,40,52,44,39,100,88,59,30.94,30.80,6,0,6,0.01
2014-12-10,55,49,42,47,45,42,100,87,75,30.84,30.70,3,0,9,0.00
2014-12-11,64,57,52,58,54,46,100,88,79,30.77,30.68,6,0,11,0.02
2014-12-12,68,61,57,61,59,57,100,93,77,30.82,30.72,5,0,9,0.06
2014-12-13,68,61,57,59,57,54,98,87,70,30.78,30.60,16,1,16,0.00
2014-12-14,66,63,60,65,62,59,98,95,85,30.61,30.32,16,2,23,0.41
2014-12-15,66,59,51,65,43,34,97,57,36,30.72,30.33,23,6,24,0.37
2014-12-16,52,45,40,35,32,28,77,59,49,30.92,30.72,16,3,21,0.00
2014-12-17,45,42,38,41,37,32,100,85,74,30.85,30.62,6,0,14,0.29
2014-12-18,48,44,40,47,44,40,100,99,97,30.74,30.65,0,0,9,0.07
2014-12-19,49,46,45,48,46,45,100,98,93,30.77,30.64,4,0,8,0.04
2014-12-20,48,46,44,46,45,44,100,97,93,30.82,30.73,0,0,1,0.00
2014-12-21,52,49,46,50,47,45,99,93,85,30.73,30.28,16,1,19,0.00
2014-12-22,65,58,52,54,49,43,94,74,47,30.28,30.09,18,5,25,0.00
2014-12-23,54,48,44,46,40,31,97,73,49,30.48,30.19,16,2,20,0.57
2014-12-24,51,44,37,36,33,31,82,66,50,30.60,30.46,19,6,25,0.00